Location: Newark
(44.6303°N, 123.0961°W)
Time: 20:51:46
(UTC+00:00)

Envisat - Pass Details

Date: 26 January 2020
Orbit: 764 x 766 km, 98.1° (Epoch: 22 February)

Event Time Altitude Azimuth Distance (km) Brightness Sun altitude
Rises 03:29:22 0° 216° (SW) 3,222 6.8 -24.5°
Reaches altitude 10° 03:32:55 10° 243° (WSW) 2,302 6.3 -25.1°
Maximum altitude 03:35:23 14° 272° (W) 2,069 6.2 -25.6°
Drops below altitude 10° 03:37:51 10° 301° (WNW) 2,310 6.2 -26.0°
Sets 03:41:27 0° 328° (NNW) 3,242 6.7 -26.6°
